Home   Weather   Pratteln   Past weeks

Flag for Switzerland Past Weather in Pratteln, Basel-Land, Switzerland — Yesterday and Last 2 Weeks

Now
37 °F

Partly sunny.


Feels Like: 35 °F
Forecast: 31 / 35 °F
Wind: 3 mph from North

Location: Bale-Mulhouse

Current Time: Dec 11, 2016 at 1:15:24 pm

Latest Report: Dec 11, 2016 at 12:30 pm


Visibility: N/A

Pressure: 30.27 "Hg

Humidity: 87%

Dew Point: 34 °F

Location of PrattelnLocation

Past Weather in Pratteln — Graph

°F

Pratteln Temperature Yesterday

Maximum temperature yesterday: 48 °F (at 2:30 pm)
Minimum temperature yesterday: 28 °F (at 4:00 am)
Average temperature yesterday: 36 °F

High & Low Weather Summary for the Past Weeks

 TemperatureHumidityPressure
High50 °F (Nov 26, 1:00 pm)100% (Nov 26, 11:00 pm)30.57 "Hg (Nov 26, 11:00 pm)
Low21 °F (Nov 29, 4:00 am)42% (Nov 28, 2:30 pm)30.01 "Hg (Nov 27, 3:00 pm)
Average33 °F87%30.33 "Hg
* Reported Nov 26 12:00 pm — Dec 11 12:00 pm, Pratteln, Weather by CustomWeather, © 2016

Note: Actual official high and low records may vary slightly from our data, if they occured in-between our weather recording intervals... More about our weather records

Advertising

Pratteln Weather History for the Previous 24 Hours

Scroll right to see more
 ConditionsComfort  
Time TempWeatherWind HumidityBarometerVisibility
12:00 pm
Sun, Dec 11
37 °FBroken clouds.2 mph87%30.27 "HgN/A
11:30 am36 °FPartly sunny.3 mph87%30.30 "HgN/A
11:00 am36 °FPartly sunny.5 mph87%30.30 "HgN/A
10:30 am36 °FPartly sunny.12 mph87%30.30 "HgN/A
10:00 am36 °FLight rain. Partly sunny.3 mph81%30.33 "Hg4 mi
9:30 am36 °FScattered showers. Partly sunny.5 mph75%30.30 "HgN/A
9:00 am32 °FBroken clouds.3 mph87%30.27 "HgN/A
8:30 am30 °FPartly sunny.5 mph86%30.27 "HgN/A
8:00 am30 °FPassing clouds.3 mph86%30.27 "HgN/A
7:30 am30 °FPassing clouds.8 mph86%30.27 "HgN/A
7:00 am30 °FPassing clouds.6 mph86%30.27 "HgN/A
6:30 am30 °FPassing clouds.6 mph86%30.27 "HgN/A
6:00 am27 °FPassing clouds.5 mph93%30.27 "HgN/A
5:30 am27 °FClear.5 mph93%30.27 "Hg10 mi
5:00 am28 °FPassing clouds.7 mph93%30.27 "HgN/A
4:30 am27 °FClear.5 mph86%30.27 "Hg10 mi
4:00 am28 °FClear.5 mph86%30.27 "Hg10 mi
3:30 am30 °FClear.9 mph86%30.24 "Hg10 mi
3:00 am30 °FPassing clouds.6 mph86%30.27 "HgN/A
2:30 am28 °FPassing clouds.3 mph86%30.24 "HgN/A
2:00 am30 °FClear.8 mph86%30.24 "Hg10 mi
1:30 am30 °FClear.9 mph86%30.27 "Hg10 mi
1:00 am30 °FClear.7 mph86%30.27 "Hg10 mi
12:30 am28 °FClear.6 mph86%30.27 "Hg6 mi
12:00 am30 °FClear.5 mph86%30.27 "Hg10 mi
11:30 pm
Sat, Dec 10
32 °FClear.8 mph87%30.27 "Hg10 mi
11:00 pm32 °FClear.6 mph87%30.27 "Hg10 mi
10:30 pm32 °FPassing clouds.6 mph87%30.27 "HgN/A
10:00 pm34 °FClear.6 mph81%30.27 "Hg10 mi
9:30 pm32 °FClear.5 mph87%30.27 "Hg10 mi
9:00 pm32 °FClear.3 mph87%30.30 "Hg10 mi
8:30 pm32 °FClear.2 mph80%30.30 "Hg10 mi
8:00 pm34 °FClear.6 mph81%30.30 "Hg10 mi
7:30 pm34 °FPassing clouds.6 mph81%30.30 "HgN/A
7:00 pm36 °FPassing clouds.7 mph75%30.30 "HgN/A
6:30 pm37 °FClear.3 mph70%30.30 "Hg10 mi
5:30 pm43 °FClear.6 mph61%30.30 "Hg10 mi
5:00 pm43 °FClear.6 mph61%30.30 "Hg10 mi
4:30 pm45 °FSunny.2 mph53%30.30 "Hg10 mi
4:00 pm46 °FSunny.3 mph53%30.30 "Hg10 mi
3:30 pm48 °FPassing clouds.3 mph50%30.30 "HgN/A
3:00 pm48 °FSunny.7 mph50%30.30 "Hg10 mi
2:30 pm48 °FPassing clouds.6 mph54%30.33 "HgN/A
2:00 pm46 °FSunny.7 mph57%30.33 "Hg10 mi
1:30 pm46 °FPassing clouds.5 mph57%30.33 "HgN/A
1:00 pm45 °FSunny.7 mph57%30.36 "Hg10 mi
Weather by CustomWeather, © 2016

See weather overviewHow to use our weather pages